map of AER home
Great Circle Mapper logo
AER - Airport
Location
City:  Sochi, Krasnodar, Russian Federation (Russia)
ICAO / IATA:URSS / AER

Details
Type:Airport (Aerodrome, Airfield)
Use:Public/Civil
Latitude:4327'00"N (43.449928)
Longitude:3957'24"E (39.956589)
Datum:WGS 1984
Elevation:89 ft (27 m)
Runways:2
Longest:9482 × 164 ft (2890 × 50 m), paved

Time
Time Zone:UTC+3 (DST+4)

Weather
METAR:URSS 162300Z 06004MPS 9999 FEW030CB BKN083 19/14 Q1011 NOSIG RMK R06/08005MPS MT OBSC QFE757 02000070 06000070
TAF:URSS 161947Z 1621/1721 05004G09MPS 9999 SCT020CB BKN100 520002
TEMPO 1621/1703 VRB05G10MPS -TSRA
BECMG 1705/1707 27004G09MPS 520002 T25/0917Z
TEMPO 1707/1715 -TSRA
BECMG 1715/1717 06003G08MPS

Related Locations
Nearby:
Farthest:NTAV: 11014 mi / 17726 km
Raivavae, Tubuai Islands, Austral Islands, PF

Find:

   beyond  
but within

Other Information
Maps:
NOTAMs:
Links:
Sources:

  
flag of Russian Federation (Russia)   

Sectional Chart

Flight Planning
at skyvector.com

Satellite Image

Google Maps Satellite View

 

Copyright © 2004-2014 Karl L. Swartz. All rights reserved.
The Great Circle Mapper name and logo are trademarks of the Great Circle Mapper.
All other trademarks mentioned herein belong to their respective owners.
Please see credits for attibutions and further copyright information.

  Follow gcmap on Facebook Follow gcmap on Twitter

hCard Microformat

Geo Microformat